CA Drinking Water Watch

MOUNTAIN HIGH EAST SKI AREA (1900581)

All Sampling Results From To

WELL 01 (CA1900581_001_001)

Click to hide / show columns: Analyte Number | Analyte Name | Sampling Date | Detected Level | Less Than | RL | Counting Error (+/-) | MCL | DLR | Unit | Lab Sample ID | Lab | ELAP | Method |

Some columns are not shown for clarity. Please use the above links to unhide them.

Tips on Using Table

Analyte Number Analyte Name Sampling Date Results Counting Error (+/-) MCL DLR Unit Lab Sample ID Lab ELAP Method
Detected Level Less Than RL
Analyte Number Analyte Name Sampling Date Detected Level Less Than RL Counting Error (+/-) MCL DLR Unit Lab Sample ID Lab ELAP Method
1040 NITRATE 08-07-2023 0.98 0.4 10 .4 MG/L 23H0743-01 CLINICAL LABORATORY OF SAN BERNARDINO 1088 EPA 300.0
1041 NITRITE 08-25-2022 < 0.4 1 .4 MG/L 22H2618-01 CLINICAL LABORATORY OF SAN BERNARDINO 1088 EPA 300.0
1040 NITRATE 08-25-2022 0.60 0.4 10 .4 MG/L 22H2618-01 CLINICAL LABORATORY OF SAN BERNARDINO 1088 EPA 300.0
1040 NITRATE 09-07-2021 1.1 0.4 10 .4 MG/L 21I0426-01 CLINICAL LABORATORY OF SAN BERNARDINO 1088 EPA 300.0
1041 NITRITE 08-24-2020 < 0.4 1 .4 MG/L 22930012008240900N CLINICAL LABORATORY OF SAN BERNARDINO 1088
1040 NITRATE 08-24-2020 1.2000000 0.4 10 .4 MG/L 22930012008240900N CLINICAL LABORATORY OF SAN BERNARDINO 1088
1040 NITRATE 07-31-2018 0.9000000 0.4 10 .4 MG/L 22930011807310900N CLINICAL LABORATORY OF SAN BERNARDINO 1088
1080 CHROMIUM, HEX 12-20-2017 < 1 1 UG/L 22930011712201100I CLINICAL LABORATORY OF SAN BERNARDINO 1088
1040 NITRATE 08-08-2017 0.9800000 0.4 10 .4 MG/L 22930011708081115N CLINICAL LABORATORY OF SAN BERNARDINO 1088
1041 NITRITE 06-24-2015 < 400 1000 400 UG/L 22930011506240950N CLINICAL LABORATORY OF SAN BERNARDINO 1088
C255 NITRATE (AS NO3) 06-24-2015 2.3000000 2 45 2 MG/L 22930011506240950N CLINICAL LABORATORY OF SAN BERNARDINO 1088
1080 CHROMIUM, HEX 09-11-2014 < 1 10 1 UG/L 22930011409111030I CLINICAL LABORATORY OF SAN BERNARDINO 1088
1925 PH 12-13-2001 7.8100000 pH 22930010112130000G L.A. CO. AGRICULTURAL COMMISSIONER /W&M 1430
2905 FOAMING AGENTS (SURFACTANTS) 12-13-2001 < 500 UG/L 22930010112130000G L.A. CO. AGRICULTURAL COMMISSIONER /W&M 1430
1920 ODOR 12-13-2001 < 1 3 1 TON 22930010112130000G L.A. CO. AGRICULTURAL COMMISSIONER /W&M 1430
1028 IRON 12-13-2001 < 100 300 100 UG/L 22930010112130000G L.A. CO. AGRICULTURAL COMMISSIONER /W&M 1430
1032 MANGANESE 12-13-2001 < 20 50 20 UG/L 22930010112130000G L.A. CO. AGRICULTURAL COMMISSIONER /W&M 1430
1050 SILVER 12-13-2001 < 10 100 10 UG/L 22930010112130000G L.A. CO. AGRICULTURAL COMMISSIONER /W&M 1430
1929 ALKALINITY, CARBONATE 12-13-2001 < MG/L 22930010112130000G L.A. CO. AGRICULTURAL COMMISSIONER /W&M 1430
1095 ZINC 12-13-2001 < 50 5000 50 UG/L 22930010112130000G L.A. CO. AGRICULTURAL COMMISSIONER /W&M 1430
1017 CHLORIDE 12-13-2001 11.8000000 500 MG/L 22930010112130000G L.A. CO. AGRICULTURAL COMMISSIONER /W&M 1430
1930 TDS 12-13-2001 320.0000000 1000 MG/L 22930010112130000G L.A. CO. AGRICULTURAL COMMISSIONER /W&M 1430
1928 ALKALINITY, BICARBONATE 12-13-2001 310.0000000 MG/L 22930010112130000G L.A. CO. AGRICULTURAL COMMISSIONER /W&M 1430
1021 HYDROXIDE AS CALCIUM CARBONATE 12-13-2001 < MG/L 22930010112130000G L.A. CO. AGRICULTURAL COMMISSIONER /W&M 1430
1055 SULFATE 12-13-2001 10.2000000 0.5 500 .5 MG/L 22930010112130000G L.A. CO. AGRICULTURAL COMMISSIONER /W&M 1430
1915 HARDNESS, TOTAL (AS CACO3) 12-13-2001 270.0000000 MG/L 22930010112130000G L.A. CO. AGRICULTURAL COMMISSIONER /W&M 1430
1064 CONDUCTIVITY @ 25 C UMHOS/CM 12-13-2001 525.0000000 1600 UMHO/CM 22930010112130000G L.A. CO. AGRICULTURAL COMMISSIONER /W&M 1430
1919 CALCIUM 12-13-2001 75.4000000 MG/L 22930010112130000G L.A. CO. AGRICULTURAL COMMISSIONER /W&M 1430
1052 SODIUM 12-13-2001 10.0000000 MG/L 22930010112130000G L.A. CO. AGRICULTURAL COMMISSIONER /W&M 1430
1905 COLOR 12-13-2001 < 15 UNITS 22930010112130000G L.A. CO. AGRICULTURAL COMMISSIONER /W&M 1430
1927 ALKALINITY, TOTAL 12-13-2001 254.0000000 MG/L 22930010112130000G L.A. CO. AGRICULTURAL COMMISSIONER /W&M 1430
1031 MAGNESIUM 12-13-2001 19.9000000 MG/L 22930010112130000G L.A. CO. AGRICULTURAL COMMISSIONER /W&M 1430
1010 BARIUM 12-13-2001 < 100 1000 100 UG/L 22930010112130000I L.A. CO. AGRICULTURAL COMMISSIONER /W&M 1430
1074 ANTIMONY, TOTAL 12-13-2001 < 6 6 6 UG/L 22930010112130000I L.A. CO. AGRICULTURAL COMMISSIONER /W&M 1430
1045 SELENIUM 12-13-2001 < 5 50 5 UG/L 22930010112130000I L.A. CO. AGRICULTURAL COMMISSIONER /W&M 1430
1025 FLUORIDE 12-13-2001 0.1500000 0.1 1.7 .1 MG/L 22930010112130000I L.A. CO. AGRICULTURAL COMMISSIONER /W&M 1430
1002 ALUMINUM 12-13-2001 < 50 1000 50 UG/L 22930010112130000I L.A. CO. AGRICULTURAL COMMISSIONER /W&M 1430
1036 NICKEL 12-13-2001 < 10 100 10 UG/L 22930010112130000I L.A. CO. AGRICULTURAL COMMISSIONER /W&M 1430
1015 CADMIUM 12-13-2001 < 1 5 1 UG/L 22930010112130000I L.A. CO. AGRICULTURAL COMMISSIONER /W&M 1430
1020 CHROMIUM 12-13-2001 16.2000000 10 50 10 UG/L 22930010112130000I L.A. CO. AGRICULTURAL COMMISSIONER /W&M 1430
1035 MERCURY 12-13-2001 < 1 2 1 UG/L 22930010112130000I L.A. CO. AGRICULTURAL COMMISSIONER /W&M 1430
1005 ARSENIC 12-13-2001 < 2 50 2 UG/L 22930010112130000I L.A. CO. AGRICULTURAL COMMISSIONER /W&M 1430
1030 LEAD 12-13-2001 < 5 5 UG/L 22930010112130000L L.A. CO. AGRICULTURAL COMMISSIONER /W&M 1430
1022 COPPER, FREE 12-13-2001 < 50 1000 50 UG/L 22930010112130000L L.A. CO. AGRICULTURAL COMMISSIONER /W&M 1430
1079 BORON, TOTAL 12-13-2001 128.0000000 100 100 UG/L 22930010112130000O L.A. CO. AGRICULTURAL COMMISSIONER /W&M 1430
2727 THIOBENCARB (BOLERO) 12-13-2001 < 1 70 1 UG/L 22930010112130000S L.A. CO. AGRICULTURAL COMMISSIONER /W&M 1430
C164 LANGELIER INDEX AT SOURCE TEMP. 12-13-2001 0.6520000 LANG 22930010112130000W L.A. CO. AGRICULTURAL COMMISSIONER /W&M 1430

RL – Reporting Level means the level to which the laboratory reported the presence of an analyte. For radionuclides, Reporting Level is the MDA95.

DLR – Detection Limit for purposes of Reporting (DLR) means the designated minimum level at or above which any analytical finding of a contaminant in drinking water resulting from monitoring required under Chapter 15 of Title 22 shall be reported to the State Board (California Code of Regulations Section § 64400.34)

For addtional definitions, please refer to our data dictionary.